Theta_e
333 329 330 325 322 320 315 313 303 305 304 299 302 303 301 310 310 308 308 312 307 312 319 321 319 316 313 317 319 324 331 327 326 319 317 340 346 347 349 352 352 352 350 349 352 354 355 355 355 355 355 356 356 356 355 356 356 356 356 355 355 354 354 353 352 352 351 351 351 352 352 351 351 350 350 350 349 349 351 348 347 347 346 347 346 347 347 349 349 348 347 347 346 346 345 345 344
324 329 328 321 318 318 310 313 304 303 301 298 300 304 305 308 308 306 306 312 318 320 322 321 321 320 323 326 325 325 329 334 336 336 341 344 347 347 350 351 353 352 350 349 348 351 353 354 354 355 355 355 355 355 355 355 356 355 355 355 355 354 353 353 352 352 352 351 352 352 352 351 351 350 350 349 349 349 351 348 347 346 346 345 345 345 346 347 347 346 346 346 346 345 345 344 344
326 325 317 316 317 316 316 312 300 300 299 296 300 303 308 306 305 307 309 319 321 323 320 324 324 321 322 324 319 323 325 339 339 339 340 347 341 344 350 352 353 353 352 348 347 350 353 353 354 354 355 355 355 355 355 355 355 355 355 354 354 354 353 352 352 352 352 352 352 352 352 351 351 351 350 350 350 349 349 350 347 346 346 346 345 346 345 345 345 345 346 347 346 346 345 345 344
333 322 314 313 310 317 310 308 302 300 298 300 300 305 307 306 306 314 320 321 322 321 323 319 320 331 331 318 324 334 333 334 342 340 338 341 344 346 348 351 354 353 352 349 348 348 352 353 354 354 354 355 355 355 355 355 355 355 355 354 354 353 353 352 352 353 352 352 353 352 352 352 351 351 350 350 350 349 348 349 348 347 347 347 346 345 345 346 346 346 347 346 345 346 345 345 344
324 319 318 312 312 306 305 305 302 301 297 301 300 306 307 307 310 314 316 319 323 323 321 322 323 329 335 331 328 326 331 337 339 343 342 347 349 349 350 352 352 352 351 351 349 350 353 352 354 354 354 355 355 355 355 355 355 355 355 354 354 353 353 353 353 352 353 353 353 353 352 351 350 350 349 349 349 348 348 348 350 347 346 346 346 346 346 347 346 346 346 346 346 346 345 344 344
319 316 318 318 308 316 308 301 300 299 302 305 303 305 307 308 312 311 310 311 315 321 323 322 321 322 326 333 341 336 341 332 339 343 346 345 348 349 350 352 352 351 352 352 351 351 353 353 353 353 353 354 354 354 355 354 355 355 354 354 353 353 353 352 352 353 353 353 352 352 351 350 349 349 349 350 348 348 348 348 347 347 347 346 346 346 346 345 345 345 346 347 346 345 345 344 345
315 313 312 313 314 314 302 300 300 301 303 306 305 305 307 308 309 308 309 309 312 315 322 321 325 327 327 333 338 342 347 344 340 344 347 347 350 349 351 351 352 351 352 351 351 351 352 352 352 353 353 353 354 354 354 354 354 354 354 353 353 353 353 352 353 353 353 351 351 351 350 350 349 348 348 348 348 349 347 348 347 347 346 346 345 345 345 345 345 346 347 347 346 346 345 345 345
319 310 308 304 302 304 299 300 301 304 304 307 308 307 307 308 308 307 308 306 308 310 318 323 324 321 327 335 331 340 346 346 344 349 348 348 349 351 352 352 350 349 351 352 351 351 353 351 352 352 353 353 352 353 353 353 354 353 353 352 352 352 352 353 353 353 352 351 350 350 349 349 349 347 346 345 346 347 346 347 347 346 346 346 346 345 345 345 345 346 347 347 346 346 345 345 344
315 310 313 304 300 303 299 299 301 305 305 307 307 308 313 308 308 307 307 308 311 315 319 320 322 319 321 329 331 339 343 347 348 349 349 349 350 352 352 351 350 349 349 351 352 353 352 351 352 352 352 352 352 352 352 353 353 353 353 353 352 352 353 353 352 351 351 348 348 349 348 348 348 347 345 344 345 347 346 347 347 347 347 347 346 345 345 348 348 348 347 347 346 346 345 345 345
312 311 306 303 303 298 299 299 299 303 304 307 307 307 308 308 308 308 307 308 309 312 317 322 323 319 325 330 332 338 342 346 347 346 349 350 350 352 353 353 353 350 349 350 352 350 351 353 351 351 351 352 352 352 352 352 352 353 353 352 351 351 352 352 352 350 349 348 348 348 348 347 346 346 345 345 345 345 346 346 347 347 347 347 347 347 347 347 347 347 346 346 346 345 344 344 344
306 310 312 302 299 298 299 299 301 304 305 307 307 308 309 309 308 307 308 308 311 309 315 322 320 323 325 327 337 346 347 346 345 344 348 350 351 352 352 354 352 352 349 351 350 350 352 351 353 351 351 352 352 351 352 352 353 352 351 351 351 352 352 351 350 350 349 347 347 348 347 347 347 346 347 346 345 346 346 346 347 347 347 347 347 346 346 346 346 345 345 344 345 344 343 342 343
305 304 305 299 298 298 300 300 302 304 306 306 305 309 312 310 310 307 307 306 309 310 314 322 319 328 325 327 333 343 345 345 346 347 349 350 350 352 352 352 351 350 352 352 352 350 350 351 352 353 352 352 352 352 352 352 351 351 351 351 351 351 349 348 347 348 347 344 346 347 347 347 347 346 347 346 346 347 346 346 346 346 346 346 346 346 345 345 345 345 344 344 343 343 343 341 341
305 307 302 300 300 301 302 301 302 303 304 304 305 309 314 311 309 308 308 308 309 309 315 322 328 327 320 324 337 343 341 345 347 347 349 348 349 350 352 351 350 351 354 353 351 348 349 348 347 351 351 353 351 351 351 351 351 351 351 351 351 349 348 345 345 348 346 345 344 342 344 347 347 347 347 347 347 346 346 347 347 346 345 345 346 346 345 344 344 343 343 343 342 342 341 342 341
306 308 305 299 303 301 301 301 303 301 301 305 308 309 315 313 312 312 312 309 308 308 319 324 329 330 327 333 334 336 341 346 347 349 348 348 348 349 350 352 350 351 353 352 347 346 346 345 347 350 348 351 353 351 351 351 350 351 350 350 349 348 345 345 346 345 344 343 344 345 346 346 347 347 348 348 347 347 347 347 346 345 345 345 345 345 344 344 343 342 342 342 342 341 341 340 342
307 310 306 303 300 301 303 300 301 301 301 306 308 308 312 316 316 314 313 310 309 316 326 331 329 326 325 326 328 334 341 344 346 347 348 348 349 349 350 349 350 352 353 351 348 346 343 345 345 349 350 352 350 347 349 348 349 350 350 349 347 347 345 346 343 342 343 343 346 348 348 348 348 348 347 347 347 347 347 346 345 345 345 345 345 344 343 342 342 342 342 342 341 341 341 342 341
310 308 305 301 299 299 302 301 303 301 302 307 308 310 308 316 318 316 315 314 315 328 328 323 334 326 326 326 331 337 343 344 346 348 346 346 347 348 348 348 348 350 348 350 349 347 347 345 348 349 347 348 343 345 346 346 345 346 347 345 346 347 346 344 342 341 342 345 346 347 347 348 347 347 348 347 347 346 346 346 345 345 344 344 344 341 341 341 340 341 342 341 341 341 341 341 340
312 310 302 301 298 300 302 302 302 299 305 307 309 309 306 313 320 321 328 322 324 327 326 331 329 334 325 329 337 344 344 346 346 345 344 343 345 344 345 346 347 347 349 346 345 349 350 346 344 347 345 343 346 345 346 347 345 345 346 342 345 347 345 344 343 343 344 344 345 347 347 345 346 345 345 345 347 346 346 345 345 344 344 344 343 341 341 341 341 341 341 342 341 341 340 340 341
310 303 301 299 301 300 304 303 304 306 305 306 307 308 307 310 316 321 324 323 324 327 330 331 332 338 338 335 342 345 345 345 344 342 342 341 343 342 342 344 344 341 345 342 343 349 348 347 343 346 342 344 346 348 346 345 345 345 345 347 348 348 344 345 345 346 344 346 346 346 344 346 343 345 345 345 345 346 345 344 344 344 344 344 343 342 341 341 342 342 341 339 340 341 341 337 337
306 303 301 298 302 304 307 307 307 306 306 307 307 308 308 312 317 322 316 315 320 320 326 327 327 332 339 343 343 343 344 343 343 341 340 340 340 341 340 341 341 342 340 340 342 343 345 347 344 343 345 343 344 341 343 346 347 348 349 346 347 343 344 345 346 345 345 344 345 345 345 345 346 345 346 344 344 344 344 344 344 344 343 343 343 343 343 342 342 342 342 341 339 339 339 339 336
307 303 299 300 306 307 308 307 306 308 307 307 306 308 308 316 319 321 320 316 320 318 319 322 324 326 333 338 341 340 342 342 342 342 340 340 340 341 341 340 342 339 340 340 339 343 345 347 344 348 343 342 347 345 344 347 348 345 346 346 346 346 343 342 342 344 346 343 345 344 343 342 343 345 343 343 344 344 344 344 344 343 343 343 343 343 343 342 342 343 342 341 341 339 338 337 337
306 303 301 303 306 305 307 307 308 308 308 307 307 307 307 315 318 319 318 318 317 318 321 323 316 325 327 339 339 340 340 340 341 342 341 341 343 343 341 341 339 341 338 340 340 340 342 343 342 346 345 345 346 347 347 345 347 348 348 347 347 348 345 345 346 346 344 343 341 342 342 342 342 344 343 343 344 343 345 343 343 343 343 344 343 340 341 342 342 339 339 338 338 338 339 339 339
307 303 305 306 308 304 307 307 307 307 308 307 307 305 306 312 313 316 316 313 314 316 319 320 324 326 333 338 338 340 340 340 341 341 342 342 342 341 342 340 337 334 334 339 341 342 342 340 343 342 344 346 347 348 342 344 346 347 345 344 345 345 344 344 345 343 344 341 342 339 343 342 344 342 344 345 345 345 345 344 342 345 345 343 343 343 341 339 340 339 337 335 339 339 340 339 336
302 305 305 307 308 305 308 307 307 307 307 306 305 308 308 309 311 314 315 313 316 320 321 324 324 327 334 339 340 339 339 339 340 341 342 341 342 342 339 339 335 334 336 337 339 336 342 342 340 340 341 343 345 346 343 343 344 345 343 345 344 345 345 343 344 344 344 341 342 344 340 345 343 344 344 340 340 343 340 339 344 342 341 343 346 344 341 341 341 341 340 339 338 339 337 336 336
305 302 306 306 307 306 308 306 307 307 306 306 308 309 306 307 305 311 313 316 319 321 323 323 326 328 334 332 340 339 339 339 341 343 344 341 336 340 336 331 332 336 338 339 337 340 339 344 339 339 340 341 342 345 345 343 346 345 345 346 345 344 343 345 344 339 340 339 341 341 347 339 341 338 336 344 344 341 338 337 341 341 342 341 344 341 339 341 338 338 338 337 335 337 335 337 334
303 302 306 306 307 307 308 307 307 307 307 309 308 305 306 307 307 310 311 315 318 318 319 321 324 331 334 336 337 339 338 339 341 340 333 333 334 338 333 332 334 335 335 337 337 339 344 345 346 341 341 338 341 343 342 341 343 344 344 345 344 344 344 342 342 339 339 342 341 344 342 341 338 338 339 340 341 343 343 338 339 339 338 337 340 342 339 340 341 341 339 337 334 337 336 336 336
305 305 306 306 306 307 307 306 307 306 307 308 306 305 307 308 309 306 310 315 317 318 317 318 323 327 331 336 339 338 338 339 338 329 330 332 334 336 333 334 336 336 338 339 340 341 344 343 341 340 341 340 340 343 343 343 343 344 345 344 345 344 343 340 340 339 341 346 344 341 342 342 344 342 344 343 340 343 343 345 343 343 339 338 336 337 342 340 340 339 339 337 335 336 335 335 335
308 306 305 305 306 306 307 305 306 307 306 307 305 305 306 309 306 302 310 314 317 316 316 317 322 324 329 336 339 338 338 337 330 331 331 332 336 335 334 335 335 338 339 340 341 341 343 340 339 340 341 345 343 339 344 344 344 342 342 341 342 343 343 342 343 343 344 343 347 344 342 343 344 344 344 342 341 341 344 344 344 344 343 340 338 339 339 340 341 338 337 337 336 334 340 336 334
306 305 305 305 306 307 306 306 306 307 305 307 306 305 307 308 306 304 309 315 315 313 314 317 320 323 328 332 335 337 338 336 332 332 332 332 333 334 334 335 337 336 338 340 341 343 342 339 338 339 340 344 343 340 340 341 341 340 341 342 340 340 337 340 342 343 342 344 346 345 344 343 343 343 344 342 340 340 341 341 342 340 340 341 339 336 338 337 338 339 338 337 336 337 338 337 334
306 305 300 303 304 303 305 304 305 306 304 307 307 304 303 304 303 307 312 314 314 313 314 317 318 323 326 327 333 335 337 335 336 334 335 335 337 337 336 339 339 338 339 341 342 342 342 341 337 340 343 344 343 342 342 341 339 339 340 338 339 341 340 340 342 343 345 347 348 346 345 345 344 344 344 343 341 341 342 342 342 340 340 340 339 339 338 338 337 340 339 337 334 336 335 336 334
306 304 302 301 301 300 304 306 306 305 305 307 306 295 299 303 306 309 316 316 313 312 314 317 318 324 327 331 331 334 335 336 336 336 335 334 337 338 338 339 342 340 342 341 342 341 342 341 340 341 343 340 342 340 340 337 340 339 342 339 341 343 342 342 344 344 346 345 345 344 342 343 345 345 342 342 342 341 342 342 341 339 340 341 340 339 338 337 337 336 337 335 335 337 334 335 331
299 302 303 298 297 297 304 304 305 302 306 306 306 296 299 303 306 309 314 314 312 311 313 315 317 321 326 329 330 333 336 336 336 336 335 335 336 338 340 339 341 341 338 340 339 340 342 342 342 341 341 341 342 342 342 343 343 340 340 340 342 346 344 343 345 346 343 344 344 342 342 344 344 343 342 341 340 340 339 339 341 339 342 341 337 337 336 335 335 336 337 335 335 336 336 335 333
301 297 295 298 296 299 304 306 304 301 304 307 304 297 299 303 306 309 312 313 313 311 312 314 318 321 327 328 330 333 333 334 334 335 335 335 337 336 337 338 339 341 337 338 339 340 339 342 342 340 341 342 344 343 346 345 344 345 343 342 344 346 343 342 343 344 344 343 342 342 343 342 342 343 342 340 339 338 337 337 336 342 341 339 337 336 337 336 336 336 335 334 333 334 334 332 334
300 297 296 296 297 298 301 304 305 305 304 305 303 297 300 301 306 309 312 312 312 311 312 315 318 322 326 327 331 331 330 332 331 333 334 335 337 337 338 338 338 339 339 339 338 338 340 341 341 341 343 343 345 345 346 347 346 344 345 344 345 346 342 341 340 340 339 339 341 343 342 342 342 342 341 340 339 338 337 337 337 338 342 338 335 338 336 338 337 336 336 335 335 334 335 334 332
296 298 295 299 297 297 297 303 305 305 304 301 303 299 301 306 309 310 313 312 311 310 311 314 318 322 326 326 328 329 329 330 329 331 334 336 336 337 339 337 338 340 340 337 339 339 338 340 340 340 342 343 344 345 346 345 344 343 344 342 341 338 337 335 337 338 339 337 338 338 340 343 343 343 341 341 341 340 339 338 337 338 338 337 336 336 338 338 337 337 335 337 335 333 331 331 332
295 296 296 296 299 299 298 299 302 304 303 301 302 301 301 305 308 311 313 311 311 310 310 314 319 322 325 325 325 329 328 329 329 331 332 335 338 338 337 337 338 340 338 336 340 339 340 340 341 342 341 341 342 343 345 344 344 341 341 340 338 337 337 336 337 337 337 339 337 338 337 338 338 338 341 341 342 338 338 338 338 337 335 335 335 335 337 339 338 336 335 335 334 332 332 332 334
298 299 297 297 297 298 298 302 305 304 301 300 301 299 300 303 305 310 312 311 311 311 312 314 319 320 323 323 324 326 330 329 331 332 334 336 337 337 336 336 338 335 334 335 338 340 339 339 340 339 341 339 340 342 343 341 340 338 336 335 333 332 334 334 337 335 337 334 336 336 336 338 337 338 338 340 340 339 339 338 338 339 335 335 334 333 336 337 337 335 334 333 330 332 335 331 335
301 301 300 298 298 300 302 302 304 305 302 300 301 302 302 302 304 307 311 312 311 311 310 314 318 320 322 322 325 328 330 331 333 334 336 336 337 336 337 336 338 334 332 333 335 338 339 338 337 337 338 338 339 339 339 338 336 334 334 331 330 332 332 334 334 335 336 335 334 332 334 334 336 337 336 337 337 337 338 339 337 337 337 335 334 335 336 338 339 337 335 334 330 328 330 333 334
300 299 299 298 299 297 301 301 305 306 303 301 302 301 302 303 305 306 309 311 308 310 311 315 317 318 319 323 323 322 323 333 333 333 335 337 336 337 337 336 336 329 330 332 335 337 338 338 338 337 337 336 339 339 338 339 337 333 332 331 330 331 329 330 331 334 335 334 334 335 335 335 336 336 336 337 337 337 340 337 340 338 337 336 336 335 335 333 335 335 336 335 333 332 329 333 332
301 298 298 297 298 301 303 303 304 305 303 300 302 300 301 304 305 307 308 311 312 312 313 316 316 316 318 323 324 325 330 328 332 333 335 336 337 337 335 336 334 332 331 332 336 337 337 337 337 337 336 335 334 333 334 335 336 337 336 333 332 329 332 334 331 331 331 330 336 335 336 335 334 332 334 334 335 335 335 335 337 339 337 337 336 335 335 335 335 332 331 332 332 332 332 335 334
299 298 296 295 299 297 296 302 303 304 302 300 302 301 302 305 306 307 311 314 313 313 313 316 318 317 318 322 325 324 326 327 330 331 332 332 335 336 336 335 336 332 330 332 334 336 337 336 336 334 333 334 332 332 332 334 337 336 337 337 337 335 332 333 333 332 330 330 332 334 335 336 334 333 332 331 331 333 334 333 333 334 338 337 335 335 334 334 335 334 335 335 335 330 327 330 333
300 300 298 298 298 299 299 300 303 305 304 305 303 302 301 303 302 304 311 314 313 313 314 315 318 318 323 325 328 328 327 330 329 331 327 325 327 332 334 337 336 330 331 331 334 335 337 336 334 333 333 334 333 332 332 333 337 336 336 337 336 332 331 328 327 325 328 328 328 330 332 334 333 331 332 331 328 329 331 333 332 332 333 338 336 335 333 333 333 335 334 333 331 331 329 330 332
297 300 300 300 301 300 300 302 301 299 298 302 300 293 294 300 303 304 308 310 311 315 314 314 316 318 322 324 325 327 329 332 331 328 325 325 331 333 334 337 337 333 331 333 334 335 337 336 334 333 333 334 333 332 333 336 335 334 333 329 325 325 323 324 323 323 322 325 325 329 330 331 331 332 331 331 330 330 330 331 333 330 333 333 334 335 335 334 334 333 334 334 333 332 331 329 328
296 297 301 301 301 302 301 301 300 296 293 300 303 292 290 300 301 303 308 310 310 314 314 315 315 318 320 323 323 324 325 327 329 324 326 327 331 333 334 335 335 337 333 334 336 334 334 335 333 333 332 330 331 334 336 335 333 333 331 328 327 326 324 327 328 329 327 324 326 328 328 331 330 331 332 331 332 332 333 333 333 332 331 331 331 331 331 330 329 328 333 333 333 333 333 329 328
295 303 302 301 301 300 301 301 300 298 301 303 302 299 294 294 300 305 307 307 306 308 311 314 314 317 318 322 321 322 321 327 324 327 329 331 332 332 332 335 336 336 333 334 334 333 330 332 332 330 328 330 330 329 334 336 334 333 332 330 330 327 328 326 328 328 328 327 326 326 329 330 330 330 330 329 331 330 332 332 332 332 330 329 327 328 328 328 329 330 332 332 332 334 333 330 329
298 303 303 300 300 301 301 300 299 300 299 295 299 301 294 294 301 305 306 304 304 305 309 311 314 317 320 320 320 321 322 326 324 324 328 331 332 332 333 335 336 334 333 332 331 329 331 332 329 328 329 329 329 326 325 327 334 335 334 331 328 329 327 327 326 326 326 328 327 327 328 328 330 330 329 329 329 329 330 332 331 330 330 329 328 327 329 329 331 331 334 334 335 334 333 333 330
302 305 305 303 302 301 301 299 298 299 295 291 297 300 292 293 300 302 306 304 302 305 309 312 314 315 316 319 320 321 323 322 325 327 329 331 333 334 336 336 336 334 333 332 331 331 330 331 331 331 329 330 329 327 329 328 332 337 336 334 329 325 325 324 324 324 326 328 327 327 326 327 328 329 330 329 329 328 328 329 329 329 330 327 325 326 329 330 330 330 331 332 335 333 334 333 331
306 303 302 301 301 301 301 300 300 297 290 293 298 299 296 290 297 301 302 302 306 310 311 312 311 314 319 318 319 322 323 325 326 324 329 332 334 335 335 332 332 332 331 328 327 326 328 330 330 329 330 330 330 330 330 333 330 334 334 332 328 326 325 325 324 325 324 326 324 326 326 327 329 328 328 329 327 328 329 329 328 328 326 326 326 326 327 326 328 328 329 329 330 331 332 333 333
303 301 299 298 297 299 298 297 298 288 287 296 299 299 298 288 296 301 304 307 309 309 307 309 311 315 315 319 321 323 326 327 326 326 325 330 330 324 322 322 326 328 329 330 329 327 328 328 328 328 329 328 328 328 331 332 333 335 334 331 329 328 327 326 325 325 325 324 325 324 326 327 327 327 326 324 326 327 328 327 327 326 327 328 327 328 326 325 325 324 325 327 327 328 329 327 328
301 300 299 293 291 290 287 292 286 287 288 296 300 300 296 293 300 304 306 308 308 309 309 310 312 315 317 319 320 321 321 325 325 325 325 325 322 321 320 321 322 323 326 327 327 328 329 329 330 329 330 332 331 329 329 332 333 333 331 330 330 329 327 326 326 326 326 325 324 324 325 324 325 324 324 324 326 327 328 327 326 324 326 328 327 325 326 325 323 323 323 323 324 324 324 326 325
299 297 296 292 287 285 283 287 289 291 295 300 299 301 294 298 303 306 306 307 309 310 312 311 311 312 314 316 320 323 324 322 324 325 326 326 321 321 321 322 323 324 325 325 325 326 328 330 329 329 329 331 331 331 333 333 335 332 332 330 330 329 327 326 326 326 326 325 324 324 325 324 324 324 322 321 322 323 323 324 324 324 325 325 325 326 326 325 324 320 323 323 322 324 324 324 323
298 301 299 295 293 288 282 287 284 287 290 296 300 295 292 292 299 307 310 310 309 310 312 316 317 317 314 316 316 320 322 323 324 325 325 324 322 323 322 322 323 325 325 325 325 326 328 330 330 327 327 329 329 331 332 333 333 332 332 331 331 330 327 325 325 325 326 324 325 325 325 325 324 324 322 323 323 323 323 323 322 322 322 324 324 324 324 324 323 320 321 322 321 321 320 319 320
300 301 302 297 293 298 289 291 291 290 289 292 295 293 298 298 306 310 312 311 310 311 311 313 313 315 315 315 316 318 322 322 324 326 326 324 322 321 322 324 324 326 326 327 328 329 330 330 329 328 329 330 331 331 332 332 331 331 330 330 330 330 327 326 324 325 325 326 326 325 325 325 325 324 324 322 322 321 320 321 320 320 321 322 323 323 322 322 323 321 320 321 319 319 321 320 319
299 299 295 298 303 300 292 291 297 292 289 288 296 296 299 303 305 307 310 310 309 310 309 312 315 315 317 316 317 319 322 323 325 326 323 323 322 321 322 323 323 325 328 330 329 330 329 329 329 329 331 331 330 331 332 331 331 329 331 330 331 330 327 326 324 325 325 326 326 325 324 325 326 325 323 323 322 322 322 321 320 320 321 321 321 321 321 321 321 320 319 318 318 319 319 318 320
300 294 298 304 305 303 297 288 290 288 285 286 295 290 293 295 290 303 304 307 309 310 312 313 316 317 316 317 318 320 321 323 325 325 324 324 324 322 322 323 323 325 327 330 330 332 330 330 330 329 329 328 329 329 330 330 329 328 330 331 331 331 328 325 325 326 326 325 325 324 325 325 324 324 323 323 323 322 322 322 321 321 321 321 321 321 320 321 321 319 319 318 318 320 319 320 320
300 300 306 296 291 289 296 291 284 284 283 285 290 294 294 295 295 300 303 306 308 309 312 313 313 315 316 318 318 319 321 322 323 324 323 322 322 324 325 325 325 326 328 330 332 331 332 331 332 330 328 329 329 330 331 330 330 328 327 331 332 331 328 325 325 326 326 325 323 323 323 324 325 324 323 323 322 321 322 323 323 321 322 321 321 321 321 320 319 318 319 319 320 320 319 318 320
304 304 300 304 300 296 291 291 293 292 286 285 286 293 289 296 300 303 304 308 309 309 310 310 313 315 317 317 318 318 321 321 320 320 321 322 323 324 324 324 325 327 327 327 329 329 329 330 329 330 329 330 329 330 330 330 330 330 327 331 332 329 329 325 324 325 325 324 324 324 323 324 324 323 323 323 321 321 322 322 322 322 322 322 321 321 321 320 321 320 319 318 319 319 317 318 318
296 297 296 299 300 302 298 298 293 291 287 287 286 286 292 301 307 304 304 309 309 309 310 312 314 316 317 317 318 318 318 319 320 320 320 321 322 324 324 325 326 327 328 328 328 328 328 328 328 328 327 328 328 329 329 330 330 331 332 331 331 330 330 327 323 324 324 326 326 327 326 325 323 322 323 322 321 321 321 322 321 321 321 323 322 322 323 322 321 320 319 319 319 317 315 315 315
299 297 295 297 296 293 289 287 297 295 291 287 287 285 295 303 307 309 309 310 310 310 311 312 314 315 317 317 318 318 318 320 320 320 320 320 322 323 324 324 324 325 325 325 326 327 328 328 327 327 327 328 329 328 328 328 330 330 331 331 331 331 331 328 325 323 324 324 321 323 326 326 324 322 322 321 320 321 322 322 320 320 321 320 322 322 323 323 320 320 320 320 319 318 318 317 318
Wind_Speed
8 9 6 7 7 7 7 7 9 8 9 12 11 11 10 10 10 2 7 7 8 6 1 1 7 4 8 5 7 10 13 8 6 6 4 5 8 11 12 17 17 16 16 15 15 14 15 15 16 16 15 17 17 18 18 19 19 18 18 17 17 16 16 16 15 14 14 14 14 14 13 13 13 12 12 11 10 9 8 9 9 8 9 9 9 9 9 12 11 11 11 11 11 10 10 11 10
8 7 6 6 7 7 7 8 8 7 10 11 13 11 11 5 3 11 13 2 9 6 2 2 4 4 3 5 4 3 12 12 12 10 7 7 11 11 17 16 18 17 15 15 15 14 14 16 15 15 17 17 17 18 17 18 18 18 18 17 16 16 16 15 15 14 14 14 14 14 13 13 13 13 12 12 10 9 7 8 9 8 8 8 8 9 9 11 10 10 10 11 11 11 11 11 11
6 6 6 7 7 8 6 8 10 10 10 11 10 13 6 4 7 8 2 2 2 2 3 2 1 4 7 4 8 5 7 11 13 11 9 9 13 10 16 16 16 15 16 14 14 14 12 15 14 15 17 16 15 17 17 17 18 18 17 17 17 16 16 16 15 14 14 14 15 14 13 13 13 12 12 11 10 9 7 7 9 8 8 8 8 8 8 9 9 10 10 11 11 11 11 11 10
11 7 7 7 6 7 7 7 10 11 10 9 8 14 9 6 3 6 3 3 2 5 4 8 7 4 7 9 7 7 9 8 11 12 7 8 9 11 15 16 17 13 14 13 14 14 12 16 14 15 16 15 16 16 16 17 17 17 17 17 16 16 16 15 15 14 14 14 14 13 13 12 12 12 11 11 10 10 9 9 9 10 9 8 8 7 7 8 8 9 10 10 11 11 11 10 10
8 7 9 8 7 7 7 8 10 10 12 8 8 5 3 6 6 5 5 1 4 6 6 3 1 1 7 7 1 2 6 9 9 9 9 8 11 12 17 16 15 13 14 14 14 14 14 19 15 16 15 16 16 16 16 17 17 17 17 17 17 16 15 15 14 14 14 14 13 13 13 13 12 12 11 9 11 11 10 9 7 9 9 9 8 7 6 7 8 9 10 10 11 11 11 10 11
8 7 7 8 7 7 7 9 10 13 12 10 10 2 6 7 9 3 6 6 4 5 6 6 4 8 6 8 8 6 3 3 9 9 9 10 13 15 18 14 14 13 14 14 14 12 15 16 15 15 17 17 16 16 17 17 17 16 17 17 17 17 16 14 14 13 13 13 13 13 13 13 12 11 9 7 9 10 9 10 9 8 9 8 8 9 8 7 6 7 9 10 10 11 10 10 11
7 7 7 7 9 7 8 10 11 11 12 14 10 1 3 6 2 4 6 7 6 8 5 8 4 5 6 5 10 9 8 4 6 8 8 13 14 16 15 13 13 15 14 13 13 14 19 15 15 15 16 18 17 16 16 16 16 16 17 16 16 16 15 14 14 13 13 13 13 13 13 12 11 11 8 8 9 7 9 10 10 10 8 8 7 7 8 8 8 8 9 10 11 10 10 8 7
7 9 7 8 7 8 10 11 12 9 9 13 7 2 2 4 2 5 4 6 10 10 11 7 8 9 7 5 5 4 8 8 10 12 13 14 14 14 15 12 13 14 15 13 13 14 19 16 15 15 16 16 19 18 18 17 17 18 18 18 17 16 15 14 12 12 12 12 13 13 13 12 12 10 8 6 6 6 9 10 10 9 8 8 7 7 7 7 8 8 9 10 11 10 8 6 5
8 11 4 8 10 7 9 11 11 12 7 6 4 7 4 5 7 7 5 7 6 9 11 9 8 8 6 8 6 6 8 9 11 13 14 15 15 14 9 12 12 12 14 14 14 15 17 17 16 16 16 16 18 20 19 19 16 17 17 17 16 13 13 13 13 12 11 12 12 13 13 14 12 11 10 7 3 7 9 10 10 10 8 8 8 8 8 8 9 10 9 11 10 9 7 6 5
8 9 8 8 8 11 10 10 11 10 14 6 4 4 1 3 9 8 8 7 9 4 7 9 8 6 7 11 8 7 6 7 12 13 13 14 15 13 12 12 12 13 14 14 15 16 14 17 15 15 15 16 15 15 14 14 14 15 15 15 14 13 12 12 12 12 12 12 13 14 14 13 12 11 11 9 7 5 8 10 10 10 9 9 8 8 9 9 10 10 9 10 9 8 6 5 5
8 8 8 8 10 11 11 9 10 11 8 2 5 5 3 6 8 8 8 10 7 9 7 6 9 8 11 7 6 6 8 9 12 13 14 14 13 12 12 11 11 13 15 15 15 15 15 16 17 13 13 14 14 14 13 13 13 12 13 13 13 12 12 12 11 10 10 11 13 13 13 12 11 11 11 10 9 10 10 10 10 10 10 10 10 9 10 10 10 10 9 8 8 7 5 2 3
9 9 8 10 10 10 9 10 10 9 7 5 7 6 3 7 6 8 10 12 7 10 7 7 7 7 9 10 4 7 10 11 11 12 13 13 11 12 12 10 12 13 14 13 15 14 15 15 14 14 13 13 13 12 12 12 12 12 11 11 11 12 13 13 11 10 10 8 10 11 12 12 12 10 10 10 11 11 10 10 10 10 10 10 10 9 9 9 10 10 10 8 6 6 5 4 4
11 8 9 9 9 10 11 10 7 3 3 9 9 7 0 8 8 10 10 11 10 11 8 10 4 8 2 6 7 8 10 12 11 12 11 11 11 10 10 11 12 14 12 14 15 15 15 14 13 13 13 14 13 12 13 12 12 12 11 10 11 13 15 14 13 12 15 12 11 10 7 10 11 9 11 12 11 11 10 11 11 9 9 10 10 10 9 9 9 9 8 7 5 4 4 4 3
10 9 8 10 10 13 12 7 9 8 7 7 4 4 3 5 6 6 7 10 9 11 8 10 6 14 6 9 8 9 10 12 13 12 11 12 11 10 11 11 14 12 13 13 15 15 14 14 12 11 12 10 9 11 12 11 11 12 11 11 12 14 14 13 11 12 14 13 13 15 12 9 10 11 10 10 10 10 11 10 10 9 8 9 10 10 10 9 9 8 8 7 5 4 3 3 2
11 8 8 9 11 11 9 10 8 6 8 8 7 5 3 7 3 9 11 11 12 3 10 7 8 10 4 6 7 10 12 14 13 12 12 11 11 11 11 12 11 10 11 13 14 12 14 13 12 10 8 7 8 7 5 9 10 11 11 12 13 15 15 13 12 12 13 10 10 12 12 12 11 10 10 9 10 11 10 9 9 9 9 10 10 10 10 9 9 8 8 7 6 3 3 3 1
9 8 8 9 11 11 7 10 10 7 2 4 9 4 7 3 6 8 9 11 5 8 8 7 3 2 11 11 8 14 16 14 13 12 11 12 12 11 11 14 11 10 10 8 9 10 8 10 9 8 8 7 7 4 4 7 9 10 12 12 14 14 14 13 12 11 10 9 11 11 11 10 9 9 10 9 10 11 10 8 9 8 9 10 10 10 10 10 9 8 8 7 6 4 2 2 3
8 8 9 9 12 11 6 7 7 10 7 3 3 3 10 7 3 8 5 6 10 9 9 6 6 6 8 7 15 19 16 14 13 14 13 12 10 10 10 10 10 10 6 11 8 6 6 11 12 8 9 10 7 9 9 10 9 8 10 9 12 12 13 11 10 10 8 9 10 9 8 6 5 6 6 7 10 8 7 8 9 9 9 10 10 10 10 9 9 9 8 7 7 7 6 5 4
7 9 10 11 10 12 7 5 6 4 4 5 2 2 6 6 6 5 7 4 5 8 4 3 5 11 8 11 19 20 18 16 14 15 13 12 10 10 10 10 10 11 8 8 7 4 6 8 12 10 10 10 8 6 7 7 8 8 10 9 9 9 9 8 8 8 9 8 9 7 3 4 5 5 4 8 5 6 9 9 9 9 9 10 9 9 9 9 8 8 7 7 7 9 10 7 7
9 9 11 12 10 10 6 3 4 3 0 3 5 2 6 2 5 5 11 14 10 12 8 7 11 9 12 13 18 19 16 15 14 14 15 13 12 13 10 10 10 10 10 10 8 8 6 7 10 10 10 10 8 6 5 8 9 7 9 7 8 8 9 5 4 6 7 4 5 4 2 1 4 2 4 5 5 6 7 9 8 7 8 9 9 9 8 8 8 7 7 7 9 9 8 7 7
12 11 12 13 12 7 3 4 3 4 4 1 3 5 7 6 5 6 6 9 12 13 10 10 7 9 11 15 18 17 16 16 15 14 15 13 11 12 11 11 10 11 8 8 9 9 10 9 5 7 12 12 9 9 8 7 8 8 7 8 7 9 10 9 7 3 4 6 4 2 3 4 4 3 6 6 7 6 6 8 8 7 6 8 9 7 8 7 8 8 7 8 8 8 7 7 5
10 13 12 11 13 14 6 4 6 2 3 3 3 1 4 6 5 5 7 9 11 9 11 8 11 9 12 15 17 16 16 15 15 14 13 13 12 9 8 8 6 6 6 7 9 11 11 8 7 8 12 12 10 8 8 7 7 6 6 6 6 6 6 6 4 4 3 3 2 2 2 4 4 4 4 4 5 6 5 6 5 5 5 6 10 6 6 6 7 7 6 7 6 6 6 2 3
9 15 16 16 6 6 5 2 2 1 1 5 3 9 2 5 5 10 7 12 7 7 10 14 16 15 13 16 15 15 15 15 14 14 14 13 11 9 7 9 16 8 6 4 4 0 10 15 15 10 10 11 10 10 9 8 7 6 6 6 5 5 6 5 4 3 2 4 4 8 7 5 5 6 4 3 2 1 3 2 3 2 4 5 7 5 4 5 6 6 7 7 7 6 3 3 3
12 13 15 15 13 6 5 5 4 4 8 8 7 2 4 8 4 3 10 8 8 6 9 6 10 9 12 12 15 14 14 14 14 14 13 11 8 7 6 9 9 7 4 4 4 6 6 12 15 13 13 10 8 9 10 9 7 4 5 4 5 4 4 4 3 3 3 1 6 8 9 4 5 2 5 5 4 4 2 1 2 0 3 2 4 3 2 3 4 4 5 7 5 4 5 4 4
14 12 11 15 12 10 5 2 5 7 6 5 6 4 9 5 8 7 9 5 4 5 6 1 5 14 10 13 13 13 14 13 13 12 10 8 4 4 12 13 7 4 3 6 6 3 7 5 10 13 12 13 10 10 8 10 8 6 6 5 4 4 3 3 2 1 0 5 7 6 4 8 2 2 6 6 5 4 4 4 2 2 3 4 3 2 3 2 2 5 2 7 6 5 5 6 6
14 15 14 8 10 11 12 8 6 6 7 7 4 7 10 6 6 6 9 7 6 7 7 6 5 8 10 10 11 11 12 12 12 7 13 12 5 9 13 9 8 6 6 7 5 6 5 5 11 11 12 14 12 10 8 8 8 6 7 5 4 4 2 1 2 3 5 6 8 5 7 3 7 4 1 1 4 4 5 7 5 5 2 3 3 2 2 4 4 5 4 7 9 4 5 4 3
14 14 15 9 9 9 10 11 11 8 6 8 9 11 9 10 2 8 8 8 7 4 7 7 8 9 9 10 10 10 10 10 7 16 9 6 0 13 10 7 6 9 9 9 8 6 7 9 11 11 11 12 12 10 7 7 9 8 7 5 2 4 3 3 4 5 6 1 2 2 6 1 2 2 4 3 1 3 2 3 5 5 6 4 1 4 3 4 4 5 5 8 8 6 4 5 4
9 17 17 15 10 10 10 12 13 11 11 9 12 11 12 9 5 8 12 9 8 7 8 9 8 9 9 10 9 9 10 9 16 12 11 10 8 10 10 9 10 10 12 11 8 8 7 9 10 10 10 9 11 9 7 7 8 6 5 5 4 2 1 4 4 8 6 3 1 2 5 3 3 3 2 2 3 1 1 1 1 2 3 4 4 3 2 3 2 4 5 6 8 8 7 4 4
4 9 11 17 12 10 10 12 12 10 12 10 10 13 14 10 9 12 13 10 9 9 9 9 9 8 9 6 9 9 8 13 12 11 10 13 11 10 11 11 12 13 13 12 8 9 8 9 11 10 10 8 9 9 9 8 8 6 5 4 4 2 1 4 8 3 2 4 4 2 2 0 0 1 2 3 3 3 3 3 1 1 1 2 2 1 2 2 3 4 5 5 5 10 12 1 4
14 7 11 12 14 13 13 13 12 11 9 12 12 13 16 11 12 17 3 10 11 10 9 9 10 9 10 13 9 8 8 11 10 9 11 10 9 9 12 9 8 11 10 10 9 9 9 10 10 9 9 8 8 9 8 9 10 7 3 2 3 5 6 8 5 4 2 3 3 2 0 1 1 0 1 1 1 3 3 3 3 2 1 2 1 0 1 1 1 3 4 2 2 5 8 10 7
11 10 9 12 13 15 17 15 14 14 12 12 12 13 14 14 14 17 11 8 10 11 11 10 9 9 8 9 8 9 8 9 9 10 11 12 13 12 12 11 9 11 9 9 9 10 7 6 7 8 9 8 8 8 7 8 9 9 6 7 5 6 5 2 1 2 2 2 2 3 3 3 3 1 2 3 3 3 4 3 3 2 2 3 1 1 1 1 3 4 2 2 1 1 2 5 6
11 12 10 10 11 12 16 15 16 17 11 11 11 12 11 15 18 19 15 13 11 12 12 10 9 9 9 10 10 10 9 8 10 11 13 13 10 8 10 9 10 10 10 10 10 10 9 7 7 7 8 9 7 8 7 7 7 11 8 8 8 7 5 5 4 3 3 2 2 3 3 2 3 2 2 1 2 2 2 2 3 2 2 2 2 1 2 3 1 3 2 4 2 2 3 4 5
11 10 13 11 13 9 15 18 18 15 12 13 12 11 11 15 19 22 16 14 13 13 13 11 9 9 9 10 11 10 9 10 11 12 12 12 9 7 11 13 12 10 12 11 10 9 9 9 8 8 9 9 6 7 6 5 6 5 6 7 6 6 5 4 5 4 3 4 3 3 3 3 2 2 2 3 2 3 3 2 1 3 3 2 2 1 2 2 2 2 3 3 3 3 3 3 2
11 13 11 13 12 13 10 17 14 17 12 15 15 10 11 17 21 23 17 16 15 14 12 12 11 9 9 11 11 11 11 11 11 12 12 8 8 8 10 13 13 13 11 11 12 10 9 9 9 10 10 9 7 6 6 6 5 6 5 5 6 5 4 5 5 5 5 4 4 3 4 3 2 3 3 3 3 2 2 3 5 3 4 3 1 1 3 1 2 1 3 3 3 4 3 5 4
11 12 12 11 15 14 11 15 15 16 17 14 18 14 15 2 10 13 13 14 14 14 14 11 10 9 10 11 12 11 11 11 11 12 11 9 8 9 9 10 12 12 11 11 10 10 9 9 8 9 8 7 6 5 5 5 5 5 5 5 5 6 6 4 4 4 4 4 4 5 4 4 3 3 3 5 3 2 1 1 3 3 2 3 3 3 2 2 2 3 3 2 3 3 2 4 4
10 11 12 12 14 14 16 12 14 16 20 14 15 16 18 8 11 9 10 12 12 14 13 11 11 10 9 13 12 12 11 12 12 12 11 9 9 9 9 10 13 10 10 10 10 10 9 9 9 9 8 8 5 6 6 5 5 5 4 5 5 5 3 4 2 4 4 4 5 4 4 3 3 2 3 3 2 2 2 2 2 4 6 2 3 2 2 3 3 3 3 1 1 2 1 6 5
13 12 11 13 11 11 13 10 12 15 15 14 14 13 15 17 10 13 11 11 11 12 12 10 11 10 12 12 13 12 11 12 13 13 12 9 9 9 9 10 10 10 10 11 11 9 10 10 8 8 7 7 7 6 5 6 5 5 5 4 5 4 5 4 3 4 4 4 4 4 4 3 4 2 3 3 3 2 2 3 2 3 6 7 3 3 3 3 3 3 2 2 2 4 5 9 7
8 10 11 13 12 10 13 13 12 11 11 15 16 14 14 16 16 12 12 11 12 12 13 10 11 11 11 13 13 12 12 12 13 13 12 11 10 9 8 9 10 15 12 6 7 11 12 10 10 9 8 8 8 8 7 6 6 6 5 5 5 4 4 4 3 4 4 4 4 5 4 4 3 3 3 2 2 3 3 3 4 2 3 3 4 4 4 3 3 3 3 2 4 4 8 8 3
7 7 8 10 12 11 13 13 11 7 9 9 13 16 15 13 13 13 13 12 13 14 13 12 13 12 12 12 14 13 11 8 13 11 11 10 9 9 9 9 12 15 11 10 9 11 11 11 11 10 8 8 8 9 5 4 5 5 5 6 6 6 6 5 5 4 4 4 5 5 4 4 4 3 3 3 2 2 2 3 3 4 2 4 1 1 3 4 3 3 3 2 4 5 3 5 6
11 9 7 9 8 12 12 7 8 7 9 9 11 14 13 12 14 15 12 11 10 12 13 13 14 13 11 11 13 10 10 10 13 11 10 9 9 10 9 9 10 16 12 11 9 11 11 10 10 10 9 8 5 5 1 3 5 4 6 6 6 6 5 5 5 6 5 5 4 4 4 4 3 4 3 3 2 3 3 2 2 2 3 3 3 3 1 1 1 0 5 4 2 4 3 1 1
9 10 10 10 7 11 9 7 8 7 7 9 12 11 9 13 15 9 10 11 10 11 13 13 12 12 12 12 14 12 12 14 15 12 10 6 6 9 8 9 11 16 12 8 8 9 10 9 10 8 8 6 4 3 4 7 3 6 4 6 5 5 7 7 6 5 6 6 5 4 5 3 3 4 3 3 3 4 3 2 2 2 2 3 4 3 1 1 1 2 1 1 0 1 2 2 3
11 12 12 9 11 12 9 6 11 9 9 10 10 8 10 11 10 10 11 11 11 11 13 14 13 13 10 10 13 14 14 14 13 11 10 7 11 10 10 9 11 15 11 10 8 9 6 9 6 8 8 7 4 5 5 11 6 8 6 6 7 8 6 6 5 5 5 5 4 4 4 3 4 4 3 4 4 3 2 2 2 2 3 2 3 3 3 2 3 3 3 2 3 1 2 3 2
10 14 15 12 13 9 7 6 6 6 9 11 12 9 11 12 15 14 10 9 11 10 11 14 14 14 10 11 12 11 11 10 11 11 11 12 13 12 12 12 11 14 14 9 9 10 8 6 4 4 4 4 3 6 11 7 6 7 7 8 7 7 7 6 6 5 5 4 5 4 5 4 4 3 4 4 5 4 3 2 1 2 3 2 1 1 1 2 1 1 3 1 3 5 2 4 3
10 11 16 16 14 10 12 12 10 9 9 11 15 12 6 9 14 15 13 12 13 11 13 14 14 14 13 11 10 10 10 10 6 10 13 14 15 15 14 12 11 11 14 9 6 9 3 5 6 4 7 7 4 3 6 8 8 7 8 7 7 7 7 6 5 5 4 5 5 4 5 4 5 4 4 4 4 3 3 2 2 2 3 3 3 3 3 3 2 3 3 2 2 2 1 2 1
10 8 17 15 14 9 9 8 9 9 1 2 13 11 10 8 11 13 15 14 16 16 15 14 14 13 13 11 12 10 11 9 11 11 12 14 13 16 14 10 9 9 12 10 6 6 7 9 11 9 10 8 4 5 9 3 6 6 7 7 6 7 6 7 7 5 5 5 5 5 5 4 5 5 4 4 4 4 4 4 3 4 4 4 3 4 3 3 3 4 4 4 3 3 1 1 3
6 2 9 14 15 12 10 11 10 9 6 8 10 13 11 7 5 13 15 15 16 17 15 14 13 12 11 13 8 9 9 11 15 11 13 13 13 14 12 10 9 12 11 10 7 5 5 8 10 10 8 8 8 7 1 12 2 4 5 4 6 6 7 7 6 6 6 6 6 5 5 5 5 5 5 4 4 4 5 5 5 5 4 4 2 4 3 4 5 5 4 5 4 4 4 4 4
7 8 7 10 12 14 13 11 11 8 8 8 9 12 10 7 10 12 14 13 14 15 15 13 12 10 12 12 12 12 9 7 11 14 13 13 11 9 9 9 9 11 13 12 9 8 6 5 8 7 8 7 5 8 5 3 7 3 2 4 6 7 6 6 6 6 6 6 5 5 5 5 5 5 4 5 4 4 3 4 5 4 3 4 5 5 5 6 6 7 7 6 6 5 4 5 5
5 5 7 9 8 8 8 9 8 7 9 10 10 10 11 8 10 9 8 10 10 8 6 8 11 13 8 11 12 10 13 16 17 18 16 13 10 5 4 7 8 10 11 13 14 10 4 5 9 13 10 9 8 5 1 3 5 3 2 5 6 7 7 6 7 7 6 6 6 6 5 5 5 5 5 4 5 5 4 4 4 5 5 4 5 5 5 6 5 6 6 7 8 7 6 5 5
8 8 10 9 9 9 9 9 8 6 7 11 10 10 12 11 9 12 15 12 9 8 10 11 10 9 12 9 10 12 10 8 7 12 15 14 6 12 11 10 11 11 10 10 13 15 11 11 11 11 11 12 10 7 2 3 2 3 4 5 6 6 7 6 7 7 7 7 6 6 5 6 6 5 5 5 5 5 4 4 5 5 5 5 5 5 5 6 6 6 6 5 6 6 6 6 7
9 10 11 10 6 5 7 8 8 7 6 6 10 12 9 12 4 7 13 9 5 9 10 7 5 10 11 9 9 9 11 9 7 7 8 11 10 10 13 15 12 10 11 11 13 13 14 16 17 16 15 14 12 10 10 6 4 4 7 6 6 6 6 7 7 7 7 6 6 6 6 6 6 6 5 5 5 5 5 4 4 5 5 5 6 6 6 5 6 6 6 7 7 7 7 6 6
12 11 10 9 8 7 7 9 5 9 10 2 6 6 9 5 10 12 4 5 4 6 6 6 12 14 13 12 12 9 9 7 6 5 5 10 16 13 9 7 5 8 10 10 11 11 11 12 14 14 14 12 11 8 8 8 5 6 8 7 7 6 6 6 6 6 6 6 6 6 6 6 6 6 6 6 5 6 5 5 5 6 6 6 6 6 6 6 6 7 7 7 7 6 6 7 7
12 11 10 8 7 7 7 7 7 7 6 9 10 4 5 13 6 8 13 11 5 4 4 4 4 6 9 13 14 13 8 6 4 5 3 16 18 16 12 10 9 12 15 14 12 12 12 10 12 16 16 15 14 11 8 8 6 7 8 7 6 6 6 6 5 6 5 6 6 6 6 6 7 7 7 6 6 6 6 5 6 6 6 6 6 5 5 6 6 7 7 7 6 6 7 7 7
10 11 9 11 7 4 8 1 4 5 4 6 7 5 4 2 5 5 8 13 14 10 5 6 9 10 13 10 12 9 9 6 6 6 13 17 17 16 14 11 9 11 13 13 14 13 12 12 13 14 15 15 14 12 9 8 6 6 8 7 7 7 6 5 5 5 5 5 6 6 6 6 7 7 7 7 6 6 6 6 6 6 6 6 5 5 6 6 6 6 6 6 6 5 6 7 6
7 10 12 9 8 8 5 3 4 3 3 5 2 8 5 10 5 0 2 7 13 15 15 12 9 9 10 12 13 9 10 8 8 8 15 15 12 12 11 10 7 4 6 8 10 9 11 12 12 10 10 10 11 10 9 8 5 7 8 9 9 8 7 6 6 7 7 6 6 5 6 6 7 7 7 7 7 7 6 6 6 6 6 6 6 6 6 6 6 6 6 6 6 6 6 6 5
5 11 9 8 2 7 4 4 5 5 8 6 8 7 10 9 4 12 13 10 8 8 8 9 7 8 10 10 11 12 11 10 11 14 17 15 12 11 9 8 8 5 4 4 8 8 8 8 9 9 8 10 9 8 8 8 7 8 9 9 8 7 7 7 7 8 7 6 6 6 6 6 6 7 6 7 7 7 6 6 6 6 6 5 6 6 6 6 6 6 6 6 6 5 5 5 5
11 6 1 9 6 9 6 3 5 5 7 6 6 7 8 8 6 10 14 10 9 9 9 8 7 7 8 10 14 14 15 15 13 14 15 14 12 9 11 10 7 6 3 3 5 6 7 6 8 9 9 9 9 7 7 7 8 7 6 7 8 7 7 7 7 7 7 7 7 6 6 6 7 7 7 8 8 8 7 6 6 6 6 6 6 6 5 6 6 6 6 5 5 5 5 5 5
14 9 9 9 8 5 5 5 6 6 6 5 6 10 5 3 5 13 8 9 8 10 6 8 7 9 8 9 10 13 12 10 12 12 12 12 12 12 12 12 8 6 7 7 7 5 5 5 6 7 8 8 8 7 7 8 8 7 8 8 8 8 8 8 8 8 7 7 7 7 7 7 7 7 7 8 8 8 8 7 7 6 6 6 6 5 5 5 5 5 5 5 5 4 5 4 4
12 12 11 7 7 3 6 5 9 7 5 5 5 7 5 4 9 7 8 8 9 9 8 8 8 9 10 11 9 9 10 10 12 13 12 12 8 8 10 10 9 7 8 8 8 7 5 5 6 9 8 8 7 6 6 6 7 7 7 8 7 7 8 7 8 9 7 7 6 7 6 6 7 7 8 8 8 9 8 8 8 7 7 6 6 5 5 5 4 4 4 4 4 4 4 4 4
11 11 12 12 9 10 9 7 6 9 7 5 4 3 6 4 7 6 9 7 11 8 10 10 10 11 11 11 11 10 10 11 10 9 9 9 9 10 11 11 10 8 7 7 7 8 8 9 9 9 10 9 9 8 7 6 6 6 7 7 7 7 7 7 9 9 8 8 8 7 7 7 7 8 8 8 9 8 8 9 8 8 7 7 6 6 5 4 5 5 5 3 3 2 4 4 1
Wind_Direction
236 222 226 232 234 242 225 204 234 197 233 242 252 226 245 206 255 325 227 117 250 178 151 243 225 208 263 343 334 49 34 38 17 311 63 138 149 118 125 131 129 134 136 135 131 139 140 140 140 137 138 137 136 136 136 134 132 132 133 132 130 126 124 126 127 128 130 132 130 129 129 128 126 126 124 121 119 117 115 125 127 133 130 121 124 124 127 119 126 122 116 108 107 109 107 106 99
220 212 225 225 225 226 208 216 250 216 210 244 238 254 235 188 170 235 250 260 4 75 226 222 180 236 324 254 318 194 69 60 54 81 92 119 128 127 120 137 135 138 133 134 141 142 142 143 139 138 139 140 138 137 135 133 133 132 133 129 125 124 126 128 130 133 133 134 133 133 132 131 130 129 126 122 121 117 111 124 128 123 120 121 126 134 136 132 135 123 119 114 112 108 110 105 104
211 215 199 212 226 234 280 198 237 244 221 223 236 229 225 157 231 202 234 42 75 89 226 114 142 195 197 236 203 289 90 79 80 87 104 147 126 124 135 131 135 136 132 138 144 144 141 144 142 141 140 137 136 137 134 131 132 131 129 128 127 128 130 132 134 135 137 136 137 138 135 133 133 130 129 124 117 118 115 111 119 119 122 120 125 129 139 133 126 128 120 116 116 111 112 108 101
286 222 211 194 199 213 235 213 241 247 240 235 241 220 209 213 200 78 93 95 153 219 203 171 192 46 304 203 66 95 87 68 81 101 126 148 119 138 138 132 133 134 134 146 146 147 144 142 144 143 140 136 135 134 131 130 130 129 129 128 129 130 134 136 138 141 141 142 142 137 133 130 128 129 126 121 118 123 123 120 127 130 126 128 128 132 135 128 126 127 122 120 119 114 113 109 104
251 213 250 213 261 201 230 231 232 238 253 246 243 81 150 205 122 131 122 239 149 254 226 105 92 184 28 60 171 142 88 94 111 130 117 105 128 144 130 137 136 141 140 147 147 143 136 145 144 144 142 141 138 132 131 132 132 132 131 131 132 134 135 137 140 142 143 142 138 134 131 128 128 127 121 121 126 131 134 133 122 125 131 131 128 123 120 131 135 130 129 122 120 122 115 115 109
235 226 212 254 234 351 269 236 226 235 249 269 271 50 172 194 104 170 146 188 200 212 221 199 188 173 161 59 24 78 38 157 97 98 128 129 144 143 137 138 142 145 145 148 141 143 138 140 143 143 145 144 141 138 135 136 134 132 132 134 136 138 138 139 141 144 140 136 135 134 131 125 119 115 108 109 134 134 129 117 113 110 122 124 131 135 135 133 132 122 123 128 127 120 119 120 111
200 212 193 225 259 256 247 235 235 233 231 253 273 1 59 48 73 152 206 211 181 228 195 212 128 149 144 121 85 63 64 44 143 126 139 139 141 141 139 145 146 143 147 149 146 137 140 140 143 146 148 146 144 144 142 137 137 137 137 137 137 141 143 143 142 139 137 134 136 130 118 115 118 116 116 117 121 114 121 119 117 116 116 119 123 131 136 136 135 135 133 129 124 123 119 120 112
227 223 167 221 223 204 227 244 247 234 220 213 234 71 106 22 0 219 233 248 171 226 174 216 168 209 105 191 88 90 80 39 96 120 130 142 140 140 146 145 152 152 146 143 134 133 136 141 147 149 149 149 149 147 148 146 142 144 144 145 146 147 144 138 135 132 134 135 130 120 120 123 124 118 101 92 66 118 126 124 121 121 125 123 123 127 136 140 134 133 134 127 124 123 120 123 122
221 242 190 231 241 211 236 237 241 235 255 174 258 256 24 279 277 309 271 232 35 250 163 198 190 212 158 118 108 111 89 83 97 121 132 140 141 144 144 155 154 147 142 136 132 135 145 144 148 150 152 152 153 154 152 151 146 145 145 146 146 141 135 132 132 131 125 130 138 129 131 133 127 126 122 127 114 124 139 126 125 124 124 125 130 137 132 116 123 118 125 126 129 131 131 140 144
217 220 194 233 242 236 230 231 238 229 239 205 232 122 70 216 233 233 252 219 234 190 217 191 199 188 127 110 124 144 101 110 116 128 137 139 145 148 158 157 150 146 131 138 140 143 142 146 147 150 152 152 151 147 146 145 147 148 145 142 140 138 135 129 126 128 133 142 132 132 137 132 130 134 133 144 143 141 148 133 127 127 127 127 122 125 128 130 126 128 136 133 132 133 135 148 155
215 203 266 237 234 247 231 233 225 233 228 180 225 225 218 233 249 246 231 250 209 221 187 172 191 175 135 134 103 87 111 136 136 133 141 140 145 156 156 156 146 142 136 146 145 140 142 151 148 147 148 149 148 148 145 146 144 141 140 137 135 131 123 113 111 124 134 136 130 128 130 129 134 141 148 152 156 170 154 134 131 124 124 127 130 129 134 132 131 134 130 125 123 124 129 121 104
225 209 205 238 239 241 232 248 224 229 188 114 230 140 156 248 238 239 225 232 218 227 200 155 208 175 139 130 146 135 142 149 139 134 139 144 154 158 154 156 143 126 138 148 139 138 144 146 151 147 145 146 143 141 141 140 135 131 129 129 127 120 117 119 126 137 121 122 125 123 129 136 141 149 152 156 169 162 140 136 131 127 132 128 124 126 131 134 133 134 136 139 141 135 134 120 94
242 226 218 240 246 236 256 252 272 295 213 181 216 109 183 240 232 223 234 232 215 222 172 191 153 155 135 178 116 133 154 140 139 144 143 150 156 159 152 148 131 129 144 141 143 143 141 147 148 153 149 143 142 137 137 133 130 127 129 130 127 126 126 135 146 143 123 125 113 108 138 134 141 150 152 153 153 146 134 125 126 133 133 136 130 127 129 134 139 140 140 138 145 145 140 122 116
232 242 238 240 248 265 260 255 245 234 218 240 154 97 197 262 216 255 257 239 221 225 165 178 222 108 134 110 136 162 155 144 138 147 154 153 157 156 151 141 130 140 143 145 143 141 148 148 147 146 146 146 136 129 123 125 127 128 134 135 133 124 124 142 135 117 124 127 138 154 150 154 146 144 144 140 131 127 125 131 125 129 138 138 135 136 134 136 139 143 143 140 143 159 132 117 89
237 239 268 265 255 250 239 263 242 219 261 128 120 230 222 206 281 234 237 234 221 163 105 146 241 171 204 158 162 168 154 151 150 153 154 152 160 156 154 132 125 138 143 148 134 140 147 145 145 143 135 135 127 107 129 125 125 141 134 133 133 126 137 135 122 117 121 139 149 138 142 140 136 132 133 128 126 133 129 127 136 140 146 144 140 137 138 137 136 139 140 138 147 145 130 113 84
244 257 257 257 248 250 226 229 252 309 136 176 115 178 239 128 246 247 221 256 102 113 187 162 35 123 181 216 154 152 149 152 150 150 150 154 160 158 154 138 138 143 147 138 125 130 109 140 129 142 142 139 137 130 117 121 142 159 136 136 131 128 125 124 123 130 144 160 142 134 134 132 130 132 134 128 126 131 143 147 145 151 148 149 142 144 141 137 138 138 136 138 137 153 163 185 151
232 257 253 238 248 240 241 221 213 229 108 221 134 165 250 164 151 261 332 246 159 155 203 148 169 125 200 151 141 133 153 145 151 153 153 159 164 162 157 150 145 142 153 124 114 125 130 154 148 165 152 149 150 147 148 141 155 147 129 126 130 120 121 127 135 144 160 142 141 140 129 121 142 136 144 128 136 143 130 139 154 158 151 152 148 148 145 140 138 138 138 141 156 163 182 185 201
221 224 236 238 242 240 235 246 213 355 29 68 162 142 254 199 189 173 219 225 184 142 135 74 92 90 89 132 125 134 142 149 154 157 162 164 171 164 165 160 154 150 147 121 108 103 152 161 148 142 129 127 135 123 134 148 147 160 145 147 135 129 124 132 142 142 153 148 134 133 110 153 154 149 139 136 124 134 137 149 154 155 156 150 151 150 148 145 145 145 151 165 177 192 190 192 186
223 224 232 242 229 247 275 248 334 153 20 83 71 209 258 91 192 163 207 190 176 171 172 178 148 101 106 113 127 132 146 149 154 164 165 168 177 170 168 163 154 139 134 124 115 165 179 168 147 153 135 117 127 133 158 153 148 128 135 144 138 134 126 129 149 155 132 123 175 127 103 157 132 142 126 138 152 138 133 151 144 141 154 154 156 162 157 158 157 161 172 188 211 213 212 218 178
222 240 228 233 252 267 39 349 348 318 18 51 242 106 273 97 220 159 216 185 176 180 147 193 124 152 159 148 139 142 151 153 159 166 170 171 177 178 169 160 163 135 115 102 139 181 176 160 132 117 128 139 152 138 154 147 143 143 155 148 157 146 151 160 188 152 113 153 200 113 173 160 146 139 131 120 134 132 146 148 150 151 156 167 161 165 172 173 174 177 190 212 229 215 219 219 194
199 233 241 236 224 251 206 220 249 249 282 339 278 66 221 158 189 167 205 185 187 159 165 158 170 157 172 147 141 149 154 158 166 173 172 176 177 179 167 133 96 71 92 128 182 184 165 129 146 154 141 137 141 136 131 143 139 140 141 141 143 141 147 145 144 139 157 140 175 224 168 180 163 153 130 146 162 155 162 159 161 165 180 179 183 191 186 175 195 193 195 217 215 229 214 222 270
231 227 239 253 286 309 311 171 148 330 298 281 273 225 243 104 194 202 214 189 171 173 173 180 146 193 156 148 146 153 161 164 174 176 177 179 174 170 155 122 68 58 100 212 196 199 173 145 156 160 143 134 140 146 145 130 138 142 133 139 142 142 158 139 140 153 176 180 179 198 175 183 151 146 154 119 119 156 176 111 214 181 204 193 197 224 199 202 209 218 211 200 222 225 192 188 222
238 229 236 249 265 289 228 205 131 230 220 220 220 245 340 239 169 210 182 212 175 170 154 142 149 138 160 140 149 158 162 174 176 186 180 163 162 153 116 52 89 115 184 184 67 52 336 169 147 146 137 129 141 124 124 132 130 131 119 137 146 152 148 141 154 195 187 184 231 192 156 197 138 129 116 136 212 169 109 195 243 299 279 246 245 242 263 280 260 262 252 239 216 209 202 176 204
231 245 220 235 245 236 287 250 134 219 250 230 256 12 245 202 237 182 207 140 113 96 86 294 125 158 158 153 161 159 171 176 181 187 171 153 90 139 90 96 133 188 168 99 82 162 154 24 129 136 133 141 141 121 123 131 129 131 142 144 163 142 149 136 121 76 356 220 210 250 227 117 97 199 170 187 156 148 132 212 158 199 241 224 253 275 315 226 249 270 263 286 246 204 221 182 204
223 238 250 245 223 226 243 245 235 220 223 242 268 249 228 222 256 139 224 173 151 181 169 197 179 141 149 152 161 161 168 180 182 137 55 15 182 117 106 134 164 158 124 130 166 166 88 102 96 120 133 137 128 136 145 132 132 145 145 149 137 146 124 142 184 181 224 193 227 226 107 157 148 175 49 123 152 158 157 147 173 157 209 296 297 273 278 262 255 251 257 245 240 210 203 206 206
223 241 241 233 239 243 234 236 241 230 227 222 231 231 237 232 283 248 206 184 164 135 197 189 183 163 157 153 160 167 171 176 132 75 75 107 241 125 121 138 149 156 164 157 172 141 148 139 140 139 139 132 132 134 143 143 141 141 135 137 125 157 176 200 189 219 250 156 289 53 109 94 103 135 148 159 225 156 141 131 141 158 158 156 354 260 246 296 310 322 308 292 307 249 209 195 209
209 224 238 243 226 225 225 236 225 220 231 213 230 223 224 210 216 219 224 143 176 185 180 203 180 177 164 145 164 166 170 130 97 124 144 157 161 132 135 153 168 165 161 174 165 148 160 151 145 148 129 128 138 143 134 125 122 129 127 127 181 174 161 213 206 210 174 154 164 28 69 133 187 133 135 146 172 158 133 214 126 148 142 136 180 244 245 258 269 274 291 292 271 267 212 177 205
271 275 239 234 237 234 237 224 233 224 217 222 225 230 232 197 201 244 195 161 185 197 190 189 199 179 148 149 174 161 151 113 135 133 151 141 156 156 163 182 173 165 171 170 156 149 153 155 148 149 135 144 135 139 138 141 115 130 170 147 153 131 170 259 217 81 74 90 134 127 153 164 325 98 132 183 193 170 180 170 169 206 139 133 128 137 181 110 280 304 294 291 325 324 321 208 191
248 240 255 240 230 236 230 231 220 222 230 203 214 238 228 204 225 227 154 166 180 207 195 196 202 177 160 174 168 148 122 131 132 137 148 158 169 169 180 189 168 155 171 162 147 144 149 151 155 123 135 141 140 140 132 128 135 137 166 150 140 179 206 213 238 94 74 141 135 144 194 112 274 205 168 151 124 195 192 167 172 154 108 114 97 112 67 167 292 284 278 319 12 349 321 333 316
242 235 244 243 227 229 222 220 226 213 220 212 198 223 223 213 219 226 156 199 201 201 206 200 202 172 168 160 145 104 110 139 142 143 150 176 190 178 180 181 165 162 160 158 144 144 139 148 137 140 145 143 141 130 135 140 141 133 178 156 187 212 209 222 230 194 169 168 165 152 200 196 220 172 177 169 191 198 194 178 125 124 133 127 102 14 207 200 189 236 239 271 263 207 290 271 294
228 232 231 245 240 229 204 211 205 221 200 209 189 234 225 215 206 221 168 191 194 206 210 200 206 190 163 169 122 133 138 130 139 143 154 183 186 177 182 179 173 176 155 146 151 141 146 135 136 142 147 140 152 138 170 138 149 144 166 165 172 200 169 192 176 191 177 166 158 168 220 192 205 187 207 193 158 218 180 185 130 118 134 101 107 239 250 115 329 256 240 290 287 263 230 252 277
225 228 221 224 243 239 214 192 201 209 183 191 202 237 244 236 201 207 174 187 194 211 207 199 205 196 166 139 121 110 124 134 131 145 163 176 177 182 190 188 192 173 161 149 143 145 150 151 149 141 142 146 139 137 120 130 143 131 144 156 159 168 178 156 189 173 166 158 156 159 186 192 192 160 154 150 184 193 184 132 172 129 133 133 140 174 263 247 191 255 293 277 294 288 296 304 348
210 227 225 220 217 241 226 168 193 200 200 181 214 232 224 245 240 187 163 192 200 216 205 199 203 185 175 139 123 126 129 140 152 158 182 179 183 190 188 183 191 182 159 149 145 152 157 153 141 143 143 142 132 133 130 127 135 142 152 156 145 159 156 168 166 162 152 152 149 146 158 164 169 137 147 135 158 187 185 154 139 170 150 132 119 228 203 267 276 274 277 262 293 299 344 323 325
208 207 236 225 217 218 236 160 198 191 219 192 199 231 238 310 61 121 165 202 200 214 215 200 200 178 180 151 142 136 146 150 158 164 170 186 181 196 187 187 186 179 154 134 144 160 166 151 149 143 136 138 126 127 135 144 144 148 147 146 155 160 176 156 142 128 124 145 141 137 151 143 152 143 142 141 163 186 152 76 102 102 115 118 174 198 197 183 215 254 246 277 283 270 304 283 252
208 200 218 228 229 213 230 181 176 206 205 219 189 219 242 162 187 166 187 199 202 215 217 201 196 180 198 164 145 151 155 164 163 163 195 191 204 192 179 177 186 167 128 122 154 172 152 146 146 144 143 142 122 139 142 144 146 142 131 141 145 152 138 104 133 130 122 120 122 124 118 119 109 122 134 130 139 163 124 107 204 130 88 278 198 184 197 185 206 232 251 264 284 283 181 259 273
223 208 212 229 216 204 233 213 170 199 187 210 207 208 220 240 196 175 183 205 204 216 218 203 194 186 192 175 165 169 162 167 169 176 200 191 205 187 181 167 173 140 103 160 185 150 149 154 156 150 142 140 137 153 149 155 156 153 153 159 156 148 141 140 143 122 132 114 105 98 101 93 99 116 121 132 146 162 151 157 125 159 177 180 147 180 191 196 194 223 234 232 295 310 253 242 226
294 236 212 221 228 215 212 236 136 188 212 203 221 221 222 220 232 178 189 189 209 216 216 200 198 192 197 182 160 163 176 168 170 184 196 196 192 185 177 163 158 115 125 169 175 164 156 159 157 152 147 142 148 157 165 166 166 159 158 161 146 156 139 134 128 112 97 85 90 105 109 101 103 95 96 119 127 126 149 145 136 175 120 88 193 170 187 205 181 189 185 177 185 225 249 222 220
281 264 241 216 220 231 184 214 136 184 241 198 213 228 222 229 227 221 183 192 207 213 212 200 207 198 196 188 164 159 189 159 170 182 193 184 184 174 167 164 156 128 147 188 186 157 159 159 159 151 148 154 166 167 167 194 180 161 169 158 157 148 141 152 129 118 99 101 92 88 93 92 88 98 87 80 82 76 87 123 123 108 117 118 112 247 159 191 205 222 179 173 230 217 287 348 358
248 265 232 247 205 250 174 181 130 168 202 242 210 220 228 217 228 228 180 193 213 214 216 203 213 204 196 181 156 164 168 172 174 175 186 168 171 168 170 168 154 131 152 198 183 154 154 160 161 156 151 160 165 151 185 223 175 151 180 148 152 142 129 117 120 110 123 118 108 100 92 99 107 87 92 94 104 86 73 63 84 119 116 142 162 135 221 143 95 93 239 202 187 245 156 276 193
236 234 252 222 217 214 194 152 192 187 215 222 226 231 224 230 227 209 172 195 214 211 213 209 212 207 199 183 152 173 181 179 177 172 169 128 193 179 180 173 157 127 165 195 168 158 157 160 169 151 146 156 154 131 47 307 195 161 179 133 128 109 98 90 101 113 106 124 127 115 100 91 79 97 99 104 66 67 36 50 96 98 122 112 132 144 154 189 217 229 298 107 183 222 177 214 229
227 242 239 237 224 209 235 182 206 191 207 249 277 245 226 220 201 204 187 200 208 207 211 209 205 211 197 170 162 168 178 179 171 160 128 168 211 202 191 183 159 145 158 186 163 162 174 171 166 143 148 150 162 125 142 229 165 155 130 110 96 96 114 126 131 127 131 114 117 121 107 115 121 96 71 54 57 54 40 47 49 101 106 124 128 146 175 168 196 182 195 184 182 309 228 189 238
213 225 246 246 234 218 178 121 179 197 215 201 225 234 235 197 202 213 192 192 207 199 210 209 202 206 182 176 159 159 179 183 177 148 145 194 199 192 192 189 173 151 156 179 149 160 170 160 139 114 126 151 129 178 197 198 151 151 149 143 141 145 140 150 142 133 138 155 114 110 124 116 87 102 102 69 68 55 60 63 27 113 119 114 100 41 86 140 84 199 148 235 154 205 206 253 120
235 199 221 246 268 235 219 169 207 221 230 185 199 242 228 197 199 209 191 193 205 197 210 207 205 199 186 176 153 160 181 184 133 136 185 196 197 190 192 189 179 154 140 160 150 123 133 114 113 182 79 31 12 310 217 190 160 156 157 155 154 150 145 134 126 133 119 107 116 117 102 108 112 96 82 97 78 67 56 46 79 68 97 111 96 65 47 28 44 35 44 292 43 38 324 357 200
236 209 188 226 242 245 233 243 213 243 241 183 211 218 248 204 200 203 186 193 201 202 203 208 205 200 185 170 162 171 175 184 120 183 191 201 189 191 193 187 168 138 119 115 112 100 142 177 148 97 120 154 146 341 296 257 152 160 168 159 155 147 134 127 132 119 114 119 123 126 127 123 113 105 109 112 126 98 69 70 61 51 57 56 64 75 56 50 31 56 37 38 30 24 341 329 98
248 200 187 209 224 228 227 229 238 241 240 224 204 223 238 231 215 186 181 195 199 201 198 203 206 195 178 143 166 183 188 178 139 198 213 216 203 193 191 181 144 114 101 101 106 124 125 91 110 158 155 132 111 114 303 299 234 163 164 161 146 118 126 135 133 134 129 129 136 143 125 106 99 97 90 72 70 107 118 79 59 59 43 67 88 97 68 56 57 51 46 46 42 40 25 12 24
199 233 209 226 211 224 223 223 234 225 230 243 232 206 235 205 195 179 178 206 198 199 194 188 207 173 192 154 165 185 195 171 169 184 206 224 220 188 183 156 119 105 99 120 131 109 83 95 123 108 98 102 140 155 234 256 314 182 201 118 111 130 137 136 137 133 133 142 130 120 121 124 117 112 91 77 69 58 69 105 85 70 69 49 53 57 75 70 54 52 42 40 35 43 36 28 31
41 250 208 219 225 227 223 246 234 230 233 239 232 212 228 217 172 169 187 213 209 172 169 191 182 185 185 155 174 174 192 195 170 174 202 208 215 145 106 72 87 96 108 109 110 110 120 100 78 89 99 92 60 359 216 258 317 274 135 106 130 139 140 140 138 145 142 144 140 145 138 129 124 105 103 88 71 73 50 78 97 87 74 61 56 65 64 71 76 64 57 53 45 41 38 42 47
203 220 225 193 210 211 213 216 228 234 237 233 217 219 201 251 162 202 195 193 200 171 191 193 174 181 169 168 169 190 206 179 173 173 174 194 132 58 62 64 91 106 111 111 116 129 129 135 137 136 137 136 148 151 259 261 259 269 114 139 144 145 148 149 152 150 153 146 147 143 131 128 121 118 108 97 85 95 100 92 84 81 70 71 70 59 66 75 70 71 60 54 60 56 48 52 42
228 223 227 216 196 210 208 203 212 222 239 235 225 197 203 226 58 351 124 101 99 144 165 170 169 165 146 179 187 196 198 186 179 186 179 142 124 113 110 116 127 148 127 118 119 128 142 146 149 148 152 156 161 156 164 204 234 212 145 149 147 154 160 157 156 154 154 148 152 146 146 137 134 127 110 100 99 101 94 80 80 85 85 69 70 79 69 67 80 66 70 72 57 54 54 50 53
213 220 216 215 201 207 230 214 210 224 218 126 242 169 239 218 126 108 79 124 133 44 92 195 190 198 182 176 190 197 181 168 179 190 202 94 100 123 128 140 129 120 112 114 127 140 158 158 161 147 145 155 155 166 155 170 200 184 154 150 149 166 159 160 160 153 155 153 151 152 151 142 131 122 122 115 115 103 93 92 85 82 87 93 85 73 60 44 61 85 68 58 62 60 53 55 54
214 226 230 215 231 205 224 239 223 217 242 179 204 198 217 222 123 125 153 147 152 150 177 177 209 136 176 179 175 184 144 161 167 189 118 97 129 137 149 164 151 144 143 144 147 154 157 156 145 146 151 159 160 158 150 164 181 173 153 151 162 161 161 165 160 152 156 152 154 158 147 141 134 132 123 117 109 103 104 99 94 92 89 87 88 92 86 69 63 71 69 63 64 59 53 58 52
207 224 230 228 219 204 249 61 338 357 251 187 186 217 202 259 124 135 143 137 139 162 176 198 183 173 164 154 146 160 140 164 172 122 90 102 110 123 126 137 150 155 152 158 155 156 151 146 150 152 154 155 150 152 156 157 164 178 157 165 169 165 163 164 150 154 152 155 156 154 147 144 139 133 128 128 123 116 115 117 111 99 97 97 94 89 88 82 73 76 75 70 73 69 67 61 64
166 220 221 225 226 229 241 192 197 158 268 257 174 208 131 132 116 127 140 151 157 166 166 172 142 131 116 123 134 155 137 144 120 104 98 103 111 115 131 137 158 174 174 163 152 148 149 143 148 150 146 141 141 153 152 150 175 171 175 174 180 167 161 163 157 155 154 154 152 149 151 146 135 136 135 131 131 130 126 114 107 104 100 97 97 97 97 94 87 85 86 80 72 66 69 68 62
209 222 228 239 309 301 268 272 149 221 232 225 218 209 209 201 179 179 181 191 151 131 119 92 81 85 99 108 116 129 136 125 114 118 120 132 133 137 134 141 144 150 177 148 136 141 141 133 136 138 138 135 142 151 152 160 183 176 185 173 175 167 161 160 156 155 154 155 152 153 147 145 149 141 144 139 134 134 127 122 114 109 107 104 97 91 92 97 97 87 85 83 79 84 81 74 72
259 266 289 251 180 214 222 269 244 226 217 240 215 204 239 231 159 186 178 171 143 135 121 115 111 101 99 105 114 120 124 123 117 115 111 121 131 140 136 124 123 130 126 96 95 106 111 121 139 139 144 146 147 152 155 163 176 172 182 188 169 174 167 158 159 157 158 157 161 149 152 151 146 154 153 148 144 141 141 129 123 119 115 110 107 107 110 102 101 100 99 96 87 81 78 80 74
241 273 260 230 259 251 231 210 255 236 232 221 226 209 227 308 1 178 146 160 140 107 120 118 125 108 104 104 107 121 123 119 118 115 118 127 134 138 124 115 106 113 105 86 84 86 80 99 129 121 129 137 139 139 150 166 171 175 176 181 173 180 170 162 160 160 161 163 162 153 152 156 155 165 160 159 153 147 147 146 140 132 130 126 125 121 111 115 110 110 104 98 108 120 107 99 86
201 216 235 221 232 217 251 234 237 233 249 231 221 229 138 56 352 80 142 132 119 128 130 121 112 114 103 97 101 109 114 119 123 126 129 123 115 110 112 117 129 118 94 105 108 113 124 139 134 136 143 148 142 146 161 166 174 167 174 174 173 176 173 164 162 164 165 160 159 157 158 161 168 173 167 170 160 155 155 155 151 152 142 137 133 130 127 119 118 105 93 102 118 110 119 98 92
219 212 221 233 223 210 217 232 243 251 242 241 242 229 90 37 338 78 131 116 130 135 130 123 117 108 109 106 104 102 105 102 107 119 132 144 137 131 124 119 121 121 127 122 130 142 155 135 146 143 141 145 145 155 158 163 175 169 172 170 168 172 181 174 169 170 167 155 165 164 166 170 181 172 180 173 167 162 159 162 162 157 153 148 149 140 142 134 120 124 121 118 113 123 77 87 90